This is the latest recevied weather packets stored in our database for station/object WC4PEM-10. If no packets are shown the sender has not sent any weather packets the latest 10 day(s).
| Time | Temp. | Humidity | Pressure | Rain* | Wind** | Luminosity | Snow |
|---|---|---|---|---|---|---|---|
| 1777477093 | 27.78° C | 63% | 1017.1 hPa | 0 mm | - | - | - |
| 1777477006 | 27.78° C | 65% | 1017.1 hPa | 0 mm | - | - | - |
| 1777476833 | 27.78° C | 63% | 1017.1 hPa | 0 mm | - | - | - |
| 1777476706 | 27.78° C | 63% | 1017.1 hPa | 0 mm | - | - | - |
| 1777476534 | 28.33° C | 64% | 1017.2 hPa | 0 mm | - | - | - |
| 1777476406 | 28.33° C | 64% | 1017.2 hPa | 0 mm | - | - | - |
| 1777476233 | 27.78° C | 63% | 1017.1 hPa | 0 mm | - | - | - |
| 1777476106 | 27.78° C | 63% | 1017.1 hPa | 0 mm | - | - | - |
| 1777475879 | 27.22° C | 66% | 1017.2 hPa | 0 mm | - | - | - |
| 1777475806 | 27.22° C | 66% | 1017.2 hPa | 0 mm | - | - | - |
| 1777475646 | 26.67° C | 68% | 1017.4 hPa | 0 mm | - | - | - |
| 1777475506 | 26.67° C | 68% | 1017.4 hPa | 0 mm | - | - | - |
| 1777475206 | 26.67° C | 71% | 1017.5 hPa | 0 mm | - | - | - |
| 1777475033 | 26.67° C | 70% | 1017.6 hPa | 0 mm | - | - | - |
| 1777474906 | 26.67° C | 70% | 1017.6 hPa | 0 mm | - | - | - |
| 1777474692 | 26.67° C | 69% | 1017.6 hPa | 0 mm | - | - | - |
| 1777474606 | 26.67° C | 69% | 1017.6 hPa | 0 mm | - | - | - |
| 1777474449 | 26.67° C | 72% | 1017.6 hPa | 0 mm | - | - | - |
| 1777474306 | 26.67° C | 72% | 1017.6 hPa | 0 mm | - | - | - |
| 1777474117 | 25.56° C | 75% | 1017.6 hPa | 0 mm | - | - | - |
| 1777474006 | 26.11° C | 73% | 1017.5 hPa | 0 mm | - | - | - |
| 1777473837 | 26.11° C | 74% | 1017.5 hPa | 0 mm | - | - | - |
| 1777473706 | 26.11° C | 74% | 1017.5 hPa | 0 mm | - | - | - |
| 1777473508 | 26.11° C | 74% | 1017.5 hPa | 0 mm | - | - | - |
| 1777473406 | 26.11° C | 74% | 1017.5 hPa | 0 mm | - | - | - |
* Rain latest hour (hover to see other rain measurements)
** Current wind speed in m/s (hover to see current wind gust speed)